Regional Weather Roundup
Issued by NWS

Home | Current Version | Previous Version | Text Only | Print | Product List | Glossary On
Versions: 1 2 3 4 5 6 7 8 9 10 11 12 13 14 15 16 17 18 19 20 21 22 23 24 25 26 27 28 29 30 31 32 33 34 35 36 37 38 39 40 41 42 43 44 45 46 47 48 49 50
000
ASUS44 KMEG 301110
RWRTN
TENNESSEE HOURLY STATE WEATHER ROUNDUP
NATIONAL WEATHER SERVICE MEMPHIS TN
600 AM CDT WED JUL 30 2014

TNZ002-004-019-021-049-052-054-088>092-301200-
WEST TENNESSEE

CITY           SKY/WX    TMP DP  RH WIND       PRES   REMARKS
MEMPHIS INTL   PTCLDY    65  56  72 CALM      30.10R
NWS MEMPHIS      N/A     59 N/A N/A MISG        N/A
JACKSON        CLEAR     55  52  89 CALM      30.11R
DYERSBURG      CLEAR     57  48  72 CALM      30.12S
UNION CITY     CLEAR     55  54  94 CALM      30.10S
PARIS          CLEAR     52  50  93 CALM      30.11S
LEXINGTON      CLEAR     54  52  94 CALM      30.10R
SAVANNAH       CLEAR     52  52 100 CALM      30.12R
$$

TNZ008-025-027-028-033-062-065-066-301200-
NORTH MIDDLE TENNESSEE

CITY           SKY/WX    TMP DP  RH WIND       PRES   REMARKS
NASHVILLE      PTCLDY    58  55  90 CALM      30.11S
DICKSON        CLEAR     54  52  94 CALM      30.11R
PORTLAND       CLEAR     54  52  94 CALM      30.11R
CLARKSVILLE    CLEAR     54  52  93 CALM      30.11R
LEBANON        CLEAR     55  53  93 CALM      30.10R
SMYRNA         CLEAR     56  56 100 CALM      30.12R
MURFREESBORO   CLEAR     57  55  93 CALM      30.10S
COOKEVILLE     CLEAR     52  52 100 CALM      30.12R
LIVINGSTON       N/A     55  51  86 CALM      30.12
CROSSVILLE     CLEAR     51  49  92 CALM      30.14R
$$

TNZ061-075-076-078-094-096-097-301200-
SOUTH MIDDLE TENNESSEE

CITY           SKY/WX    TMP DP  RH WIND       PRES   REMARKS
LEWISBURG      CLEAR     54  51  89 CALM      30.10S
FAYETTEVILLE   CLEAR     55  54  94 N10G23    30.11R
TULLAHOMA      CLEAR     52  48  87 CALM      30.12S
WINCHESTER     CLEAR     54  52  94 CALM      30.11R
MCMINNVILLE    CLEAR     54  54 100 CALM      30.12R
COLUMBIA       CLOUDY    55  55 100 CALM      30.10R VSB 3/4
SHELBYVILLE    CLEAR     54  54 100 CALM      30.12S
$$

TNZ017-018-042-046-047-301200-
NORTHEAST TENNESSEE

CITY           SKY/WX    TMP DP  RH WIND       PRES   REMARKS
TRI CITIES     FOG       53  51  93 CALM      30.14R VSB 1/16
ELIZABETHTON   SUNNY     48  46  93 CALM        N/A
$$

TNZ012-013-036-069-073-074-301200-
CENTRAL EAST TENNESSEE

CITY           SKY/WX    TMP DP  RH WIND       PRES   REMARKS
KNOXVILLE      CLEAR     55  53  93 CALM      30.10R
OAK RIDGE      CLEAR     55  53  93 CALM      30.13R
GATLINBURG     SUNNY     52  50  93 CALM      30.12R
MORRISTOWN     SUNNY     54  54 100 CALM      30.13S
$$

TNZ083-085-099-301200-
SOUTHEAST TENNESSEE

CITY           SKY/WX    TMP DP  RH WIND       PRES   REMARKS
CHATTANOOGA    PTCLDY    60  55  83 CALM      30.10R
$$

SKY/WX REPORTED AS FAIR MEANS FEW OR NO CLOUDS BELOW
12 THOUSAND FEET.



USA.gov is the U.S. government's official web portal to all federal, state and local government web resources and services.